Location: Palomar Mountain Lodge
(33.3110°N, 116.8495°W)
Time: 02:27:08
(UTC-07:00)

ASTEX 1 - Pass Details

Date: 19 May 2017
Orbit: 721 x 743 km, 92.7° (Epoch: 16 October)

Event Time Altitude Azimuth Distance (km) Brightness Sun altitude
Exits shadow 21:04:17 24° 118° (ESE) 1,485 4.4 -15.3°
Maximum altitude 21:06:14 32° 78° (ENE) 1,229 4.2 -15.6°
Drops below altitude 10° 21:10:35 10° 16° (NNE) 2,226 6.2 -16.3°
Sets 21:13:04 0° 6° (N) 3,148 7.1 -16.7°
